Location: Kumla
(59.1265°N, 15.1401°E)
Time: 17:04:16
(UTC+01:00)

Transit 2A - Pass Details

Date: 08 December 2023
Orbit: 600 x 953 km, 66.7° (Epoch: 27 February)

Event Time Altitude Azimuth Distance (km) Brightness Sun altitude
Rises 14:14:44 0° 179° (S) 3,133 10.2 3.0°
Reaches altitude 10° 14:17:38 10° 164° (SSE) 2,152 9.0 2.8°
Maximum altitude 14:21:12 21° 116° (ESE) 1,495 7.5 2.5°
Drops below altitude 10° 14:24:35 10° 68° (ENE) 2,033 7.7 2.3°
Sets 14:27:14 0° 52° (NE) 2,908 8.4 2.1°
